Regional Weather Roundup
Issued by NWS

Home | Current Version | Previous Version | Text Only | Print | Product List | Glossary On
Versions: 1 2 3 4 5 6 7 8 9 10 11 12 13 14 15 16 17 18 19 20 21 22 23 24 25 26 27 28 29 30 31 32 33 34 35 36 37 38 39 40 41 42 43 44 45 46 47 48 49 50
403
ASUS43 KDTX 250301
RWRMI
MICHIGAN HOURLY REGIONAL WEATHER ROUNDUP
NATIONAL WEATHER SERVICE DETROIT/PONTIAC MI
1000 PM EST SAT FEB 24 2018

NOTE: "FAIR" INDICATES FEW OR NO CLOUDS BELOW 12,000 FEET WITH NO
SIGNIFICANT WEATHER AND/OR OBSTRUCTION TO VISIBILITY.

MIZ047>049-052>055-059>063-066>070-074>076-081>083-250400-
SOUTHEAST LOWER MICHIGAN

CITY           SKY/WX    TMP DP  RH WIND       PRES   REMARKS
ADRIAN         LGT RAIN  35  33  92 E13       29.89F WCI  26
ALMA           CLOUDY    33  32  94 E14       29.84F WCI  24
ANN ARBOR      LGT RAIN  36  34  92 E9        29.89F WCI  29
BAD AXE        CLOUDY    32  29  90 E7        29.96F WCI  26
CARO           FAIR      32  29  90 E10G17    29.91F WCI  24
DETROIT CITY   LGT RAIN  36  32  85 E13       29.93F WCI  27
DETROIT        LGT RAIN  38  33  82 E14       29.92F WCI  30
FLINT          CLOUDY    35  31  85 E16       29.88F WCI  25
GROSSE ILE     DRIZZLE   37  33  87 SE9G84    29.91F WCI  30
HILLSDALE      LGT RAIN  34  32  93 E16G25    29.81F WCI  23
HOWELL         CLOUDY    36  33  88 SE16      29.86F WCI  27

CITY           SKY/WX    TMP DP  RH WIND       PRES   REMARKS
JACKSON        MIX PCPN  36  34  92 E18G26    29.82F WCI  26
LAMBERTVILLE   RAIN      35  33  92 E8        29.89F WCI  28
LANSING        CLOUDY    37  32  82 SE16      29.84F WCI  28
LAPEER         CLOUDY    33  31  91 E5        29.92F WCI  29
MASON          CLOUDY    38  32  78 E12G20    29.83F WCI  31
MONROE         DRIZZLE   35  32  89 E13G21    29.89F WCI  26
MT. CLEMENS    CLOUDY    36  36 100 E8        29.92F WCI  29
PONTIAC        CLOUDY    36  31  82 E15G22    29.89F WCI  27
PORT HOPE        N/A     33  30  88 E16       29.95F WCI  23
PORT HURON     CLOUDY    36  32  87 E12       29.96F WCI  27
TRI CITIES     CLOUDY    32  28  85 E15       29.89F WCI  22
MIDLAND        MOCLDY    32  28  85 E14G20    29.87F WCI  22
TROY           LGT RAIN  37  33  84 E8G17     29.94F WCI  31
SAGINAW HB     CLOUDY    32  30  93 E9        29.89F WCI  24
$$
MIZ043>046-050>051-056>058-064>065-071>073-077>080-250400-
SOUTHWEST LOWER MICHIGAN

CITY           SKY/WX    TMP DP  RH WIND       PRES   REMARKS
BATTLE CREEK   CLOUDY    38  33  82 SE15G28   29.76F WCI  29
BENTON HARBOR  CLOUDY    41  35  79 SE21G29   29.65F
BIG RAPIDS     CLOUDY    32  27  82 SE18G26   29.79F WCI  20
COLDWATER      LGT SNOW  37  37 100 E15G22    29.75F WCI  28
FREMONT        CLOUDY    35  26  70 E13G28    29.73F WCI  27
HOLLAND        CLOUDY    40  34  79 SE22G29   29.70F WCI  30
GRAND RAPIDS   CLOUDY    38  33  82 E24G31    29.74F WCI  27
IONIA          CLOUDY    37  32  84 E21       29.79F WCI  26
KALAMAZOO      CLOUDY    40  34  79 SE16G28   29.74F WCI  31
LUDINGTON      CLOUDY    34  31  87 E16G24    29.70F WCI  24
MARSHALL       DRIZZLE   36  35  94 E16G22    29.78F WCI  26
MOUNT PLEASANT CLOUDY    33  28  81 E14G23    29.84F WCI  23
MUSKEGON       CLOUDY    38  30  73 E20G26    29.70F WCI  28
SOUTH HAVEN    CLOUDY    41  36  81 SE18G28   29.67F
$$
MIZ016>042-250400-
NORTHERN LOWER MICHIGAN

CITY           SKY/WX    TMP DP  RH WIND       PRES   REMARKS
ALPENA         CLOUDY    32  28  85 E18G24    29.98F WCI  20
BEAVER ISLAND  CLOUDY    32  25  76 E20G26    29.84F WCI  20
BELLAIRE       CLOUDY    32  26  78 SE12G18   29.85F WCI  23
CADILLAC       CLOUDY    29  26  90 E21G26    29.78F WCI  16
CHARLEVOIX     CLOUDY    32  25  74 E14G21    29.87F WCI  22
FRANKFORT      CLOUDY    35  27  73 SE16G26   29.74F WCI  25
GAYLORD        CLOUDY    28  24  85 E13G22    29.86F WCI  17
GRAYLING       CLOUDY    29  25  82 E16       29.84F WCI  18
HARBOR SPRINGS CLOUDY    31  24  75 E18G25    29.88F WCI  19
HOUGHTON LAKE  CLOUDY    29  24  82 E17G24    29.84F WCI  17
MANISTEE       CLOUDY    34  28  79 E15G31    29.72F WCI  24
OSCODA         CLOUDY    32  28  84 E7        29.97F WCI  26
PELLSTON       CLOUDY    31  24  75 E17G26    29.91F WCI  19
ROGERS CITY    CLOUDY    31  25  78 E13G18    29.98F WCI  22
TRAVERSE CITY  CLOUDY    34  25  69 E7G20     29.80F WCI  28
$$
MIZ007>008-015-250400-
EASTERN UPPER MICHIGAN

CITY           SKY/WX    TMP DP  RH WIND       PRES   REMARKS
KINROSS        CLOUDY    29  25  85 SE17      29.93F WCI  17
MACKINAC ISLAN CLOUDY    31  25  79 E17G26    29.92F WCI  19
NEWBERRY       CLOUDY    29  24  81 E20G25    29.87F WCI  16
S. S. MARIE    CLOUDY    30  23  75 E10G17    29.95F WCI  21
MUNISING         N/A     32  23  69 SE14G24   29.79F WCI  22
$$
MIZ004>006-011>014-085-250400-
CENTRAL UPPER MICHIGAN

CITY           SKY/WX    TMP DP  RH WIND       PRES   REMARKS
MANISTIQUE     CLOUDY    30  28  90 E20G28    29.84F WCI  17
ESCANABA       CLOUDY    32  26  78 E21       29.76F WCI  20
MENOMINEE      LGT RAIN  34  29  82 E14       29.70F WCI  25
SAWYER-GWINN   CLOUDY    30  19  64 E15G21    29.74F WCI  19
$$
MIZ001>003-009>011-084-250400-
WESTERN UPPER MICHIGAN

CITY           SKY/WX    TMP DP  RH WIND       PRES   REMARKS
IRON MOUNTAIN  CLOUDY    30  22  72 E14G20    29.66F WCI  19
HOUGHTON       CLOUDY    30  23  75 E20G28    29.74F WCI  17
COPPER HARBOR    N/A     32  22  66 S12G20    29.78F WCI  23
IRONWOOD       LGT SNOW  31  22  69 SE18G26   29.54F WCI  19
$$

ABBREVIATIONS USED IN REMARKS
   TC - TEMPERATURE IN CELSIUS
  WCI - WIND CHILL INDEX
   HX - HEAT INDEX
  VSB - VISIBILITY





USA.gov is the U.S. government's official web portal to all federal, state and local government web resources and services.